Погода Пушкинские Горы

Погода Пушкинские Горы : погода сейчас, прогноз погоды и архив. Всё, что Вы хотите узнать о погоде Пушкинские Горы!

Хотите узнать прогноз погоды Пушкинские Горы? Тогда Вам сюда: Погода Пушкинские Горы

Поиск расширенной информации на нашем сайте:

Полезная информация:

Другие новости

Новости СМИ2

Главная страница сайта

Новости сайта

03.07.2017

Напоминаем, что на нашем специализированном сайте Метеоцентр.Азия вы можете получить высокодетализированные автоматические прогнозы погоды по пунктам России, СНГ и мира в авиационном формате (включающие направление и скорость ветра, видимость, явления погоды, количество и форму облачности, нижнюю и верхнюю границу облачности).

Рекомендуем:

Погода Пушкинские Горы - сегодня

Время (UTC), дата Ветер
(°,м/с) 
Видим.   Явления Облачность Т
(°С)
Тd
(°С)
f(%) Тe
(°С)
Pmin
(гПа)
dP
(гПа)
Po
(мм)
O2
(г/м3)
Тmin Tmax R s Состояние
почвы
12 15.07.19 260 (З) 20000 м  {ливн. осадки}  9/8 1000 м кучево-дожд., верхняя 
[Cb cap|Ci fib]
+17.8 +10.4 62 +20  1011.3  -0.2  749  282           
15 15.07.19 360 (С) 20000 м    8/3 1000 м средняя, верхняя 
[Cu med, cong|Ac trans|Ci fib]
+19.5 +9.4 52 +21  1010.9  -0.3  749  280      0.3     
18 15.07.19 тихо ()   20000 м    6/1 1000 м средняя, верхняя 
[Cu med, cong|Ac trans|Ci fib]
+17.1 +11.9 71 +21  1011.1  0.1  749  282    +20.4  0.3     
21 15.07.19 130 (ЮВ) 4000 м  дымка  1/0 верхняя 
[Ci fib]
+10.7 +10.3 97 +14  1011.6  0.2  749  289           
00 16.07.19 140 (ЮВ) 4000 м  дымка  1/0 верхняя 
[Ci fib]
+11 +9.7 92 +13  1011.2  -0.4  749  288           
03 16.07.19 тихо ()   4000 м    1/0 верхняя 
[Ci fib]
+8.8 +8.6 99 +9  1010.8  -0.5  749  291  +8.3    0.3     
06 16.07.19 150 (ЮВ) 20000 м    4/0 верхняя 
[Ci fib]
+17.1 +11.9 71 +23  1009.8  -0.6  748  281  +8.3         
09 16.07.19 150 (ЮВ) 20000 м    8/8 600 м кучево-дожд. 
[Cb cap]
+20.3 +9.5 50 +21  1008.7  -1  747  279           
12 16.07.19 100 (В) 20000 м    9/8 1000 м верхняя 
[Cu med, cong|Ci fib]
+21 +10.5 51 +23  1007.1  -1.5  746  277           
15 16.07.19 100 (В) 20000 м  в посл. час гроза{ливн. осадки}  9/9 600 м кучево-дожд. 
[Cb cap]
+15.7 +15.4 98 +27  1007.2  -0.1  746  281         
18 16.07.19 тихо ()   20000 м  {гроза, ливн. осадки}  8/6 600 м кучево-дожд., средняя 
[Cb cap|Ac trans]
+15.1 +13.9 93 +22  1007.3  746  282    +22.6     
21 16.07.19 090 (В) 20000 м    9/5 600 м кучево-дожд., верхняя 
[Cb cap|Ci fib]
+13.8 +12.2 90 +19  1006.9  -0.4  746  284           
00 17.07.19 030 (СВ) 10 км    4/3 600 м кучево-дожд., верхняя 
[Cb cap|Ci fib]
+11 +10.7 98 +14  1006.5  -0.5  746  287           
03 17.07.19 тихо ()   10 км    8/8 600 м кучево-дожд. 
[Cb cap]
+12.3 +11.5 95 +16  1006.3  -0.2  745  285  +10.4         
06 17.07.19 040 (СВ) 20000 м    9/9 600 м кучево-дожд. 
[Cb cap]
+14.7 +12.6 87 +21  1006.4  0.2  746  283  +10.4         
09 17.07.19 100 (В) 20000 м    9/8 600 м кучево-дожд., средняя 
[Cb cap|Ac trans]
+18.1 +12.3 69 +23  1006.2  746  279           
12 17.07.19 020 (С) 20000 м  в посл. час гроза{ливн. осадки}  9/9 600 м кучево-дожд. 
[Cb cap]
+16.1 +14.6 91 +25  1006.7  0.4  746  281           
15 17.07.19 040 (СВ) 20000 м    9/8 600 м кучево-дожд., верхняя 
[Cb cap|Ci fib]
+18.5 +14 75 +26  1006.1  -0.5  746  278      12     
18 17.07.19 тихо ()   20000 м    8/5 600 м кучево-дожд., средняя, верхняя 
[Cb cap|Ac trans|Ci fib]
+14.6 +14.1 97 +22  1007  0.7  746  282    +19.4  12     
21 17.07.19 030 (СВ) 10 км    5/1 600 м кучево-дожд., верхняя 
[Cb cap|Ci fib]
+12.6 +12.4 99 +19  1007  -0.1  746  285           
00 18.07.19 360 (С) 10 км    8/3 600 м кучево-дожд., средняя, верхняя 
[Cb cap|Ac trans|Ci fib]
+12 +11.8 99 +17  1006.9  -0.1  746  286           
03 18.07.19 320 (СЗ) 0500 м  туман  ?/?  
+11.8 +11.6 99 +16  1006.3  -0.6  745  286  +11.1         
06 18.07.19 340 (С) 4000 м  дымка{туман}  10/10 300 м кучево-дожд. 
[Cb cap]
+14.4 +14.2 99 +23  1005.9  -0.3  745  282  +11.1         
09 18.07.19 350 (С) 10 км    10/10 300 м кучево-дожд. 
[Cb cap]
+16.3 +14.4 89 +25  1005.2  -0.6  745  280           
12 18.07.19 320 (СЗ) 10 км  слаб. ливневой дождь  10/10 300 м кучево-дожд. 
[Cb cap]
+16.8 +14.8 88 +27  1004.7  -0.4  744  279           
Время (UTC), дата Ветер
(°,м/с) 
Видим.   Явления Облачность Т
(°С)
Тd
(°С)
f(%) Тe
(°С)
Pmin
(гПа)
dP
(гПа)
Po
(мм)
O2
(г/м3)
Тmin Tmax R s Состояние
почвы

Для получения пояснительной информации подведите курсор к названию столбца.

ПОГОДА Пушкинские Горы - архив

Всё, что Вы хотите узнать о погоде Пушкинские Горы - удобно и подробно!

Выберите нужную дату (начиная с 1 января 2018* года) и нажмите кнопку "Найти".
Будут отображены архивные сводки погоды по пункту Пушкинские Горы, начиная с указанной даты.


Отображать данные в формате CSV (для использования в таблицах Excel)


Внимание! Наш архив погоды предназначен исключительно для личного некоммерческого использования в познавательных целях. Если Вам необходимы официальные справки о состоянии погоды (для производственных, юридических, коммерческих и т.п. целей), обращайтесь в органы Росгидромета.

*Примечание: данная дата относится к архиву по метеостанциям СССР (Россия, СНГ, Балтия).
Архив по метеостанциям Зарубежной Европы и Азии (кроме Китая) хранится 10 дней, по другим регионам земного шара (Китай, Африка, Америка, Австралия, Океания) - 1 день.

Пушкинские Горы - район местоположения метеостанции


Название, широта, долгота, высота метеостанции:
Пушкинские Горы 57°ш. 28.9°д. 108 м над ур. моря [Российская Федерация]

Дополнительная информация

В oтличие oт бoльшинства пoгoдных сайтoв мы публикуем пoдрoбную метеoинфoрмацию в детальнoм прoфессиoнальнoм фoрмате.

Характеристики температуры и влажнoсти вoздуха измеряются на высoте 2 м в тени вдали oт зданий и деревьев.
Скoрoсть ветра измеряется на высoте 10 м (на урoвне рoста челoвека скoрoсть ветра ниже в 1.5-2 раза). Если метеoстанция нахoдится в гoрoде или в лесу, тo скoрoсть ветра занижена на 2-4 м/с пo сравнению с oткрытым местoм. Скoрoсть ветра над акватoриями крупных рек и oзёр, а также на вершинах хoлмoв на 2-5 м/с выше, чем в oбычных услoвиях.
Атмoсфернoе давление в разных тoчках местнoсти мoжет значительнo oтличаться oт давления на метеoстанции, в зависимoсти oт услoвий рельефа (при пoдъёме на 10 м давление пoнижается примернo на 1 мм рт.ст.).